This demonstration page uses our WeatherBlox Daily Observations layout. Learn more.

Left ArrowRight Arrow

Hourly Observations for December 19, 2015

Temp ( °F °C ) Dew Point ( °F °C ) Humidity (%) Winds ( mph kmh ) Pressure ( in mb ) Visibility ( mi km ) Precip ( " mm )
12:51 am 00:51 Clear 44 6.7 20 -6.7 38 38 ESE 12 19 30.11 1020 10 16 N/A
1:51 am 01:51 Clear 44 6.7 21 -6.1 40 40 ESE 16 26 30.11 1020 10 16 N/A
2:51 am 02:51 Clear 43 6.1 21 -6.1 42 42 ESE 14 22 30.11 1020 10 16 N/A
3:51 am 03:51 Clear 43 6.1 21 -6.1 42 42 ESE 13 20 30.09 1019 10 16 N/A
4:51 am 04:51 Clear 43 6.1 21 -6.1 42 42 ESE 18 30 30.09 1019 10 16 N/A
5:51 am 05:51 Clear 43 6.1 21 -6.1 42 42 ESE 12 19 30.11 1020 10 16 N/A
6:51 am 06:51 Clear 44 6.7 20 -6.7 38 38 ESE 16 26 30.13 1020 10 16 N/A
7:51 am 07:51 Sunny 42 5.6 21 -6.1 43 43 E 9 15 30.15 1021 10 16 N/A
8:51 am 08:51 Sunny 45 7.2 21 -6.1 39 39 ESE 13 20 30.16 1021 10 16 N/A
9:51 am 09:51 Sunny 47 8.3 20 -6.7 34 34 ESE 13 20 30.17 1022 10 16 N/A
10:51 am 10:51 Sunny 49 9.4 21 -6.1 33 33 SE 14 22 30.14 1021 10 16 N/A
11:51 am 11:51 Sunny 51 10.6 21 -6.1 31 31 SE 9 15 30.10 1019 10 16 N/A
12:51 pm 12:51 Sunny 53 11.7 19 -7.2 26 26 SSE 9 15 30.06 1018 10 16 N/A
1:51 pm 13:51 Sunny 55 12.8 19 -7.2 24 24 SE 8 13 30.03 1017 10 16 N/A
2:51 pm 14:51 Sunny 55 12.8 20 -6.7 25 25 S 3 6 30.02 1017 10 16 N/A
3:51 pm 15:51 Sunny 54 12.2 21 -6.1 28 28 ESE 7 11 30.01 1016 10 16 N/A
4:51 pm 16:51 Sunny 53 11.7 22 -5.6 30 30 ESE 7 11 30.02 1017 10 16 N/A
5:51 pm 17:51 Mostly Cloudy 54 12.2 21 -6.1 28 28 ESE 13 20 30.01 1016 10 16 N/A
6:51 pm 18:51 Mostly Clear 52 11.1 21 -6.1 30 30 SE 12 19 30.01 1016 10 16 N/A
7:51 pm 19:51 Clear 57 13.9 21 -6.1 25 25 E 12 19 29.98 1015 10 16 N/A
8:51 pm 20:51 Clear 53 11.7 22 -5.6 30 30 SE 13 20 29.98 1015 10 16 N/A
9:51 pm 21:51 Clear 53 11.7 23 -5 31 31 SE 10 17 29.98 1015 10 16 N/A
10:51 pm 22:51 Clear 51 10.6 23 -5 33 33 ESE 10 17 29.97 1015 10 16 N/A
11:51 pm 23:51 Clear 51 10.6 23 -5 33 33 ESE 15 24 29.95 1014 10 16 N/A

Powered by AerisWeather